Temperature
19 19 19 19 17 17 19 19 19 19 20 20 20 20 19 18 19 18 18 18 18 18 18 18 18 18 18 18 18 18 18 18 18 18 18 18 18 18 18 17 17 17 17 17 18 18 18 18 18
19 19 19 18 17 18 19 19 19 20 20 20 20 20 19 18 18 18 18 18 18 18 18 18 18 18 18 18 18 18 18 18 18 17 17 17 17 17 17 17 17 17 17 17 17 17 17 17 17
19 19 19 17 18 18 20 19 19 20 20 20 20 19 19 18 18 18 18 18 18 18 18 18 18 18 18 18 17 17 17 17 17 17 17 17 17 17 17 17 17 17 17 17 17 17 17 17 17
19 19 18 17 19 19 19 19 19 19 20 20 19 18 18 18 19 18 18 18 18 18 18 18 18 18 18 17 17 17 17 17 17 17 16 16 16 16 16 16 16 16 16 16 16 17 17 17 17
19 19 17 18 18 19 18 18 19 19 19 19 19 18 18 18 19 18 18 18 18 18 18 18 18 17 17 17 17 17 17 17 17 16 16 16 16 16 16 16 16 16 16 16 16 16 16 16 17
19 17 17 18 18 18 18 18 19 19 19 19 19 18 18 18 18 18 18 18 18 18 18 17 17 17 17 17 17 17 17 17 16 16 16 16 16 16 16 16 16 16 16 16 16 16 16 16 16
18 16 17 18 18 18 19 19 19 19 19 19 19 17 18 18 18 18 18 18 18 18 18 17 17 17 17 17 17 17 17 16 16 16 16 16 16 16 16 16 16 16 16 16 16 16 16 16 16
18 16 17 17 18 19 18 19 19 19 19 19 19 18 18 18 18 18 18 18 18 18 18 17 17 17 17 17 17 17 16 16 16 16 16 16 16 16 15 15 15 15 15 15 15 16 16 16 16
18 16 17 18 18 18 18 18 19 19 19 19 19 19 19 18 18 18 18 18 18 18 18 17 17 17 17 17 17 17 16 16 16 16 16 16 16 16 15 15 15 15 15 15 15 15 16 16 16
18 16 18 18 18 18 18 18 19 19 19 19 19 19 19 18 18 18 18 18 18 18 18 17 17 17 17 17 17 16 16 16 16 16 16 16 15 15 15 15 15 15 15 15 15 15 15 15 16
18 17 18 18 18 18 18 19 19 19 18 19 19 19 19 18 18 18 18 18 18 18 18 18 17 17 17 17 17 16 16 16 16 16 16 16 15 15 15 15 15 15 15 15 15 15 15 15 16
18 18 18 18 19 19 19 19 19 19 20 20 20 20 19 19 19 19 19 18 18 18 18 18 17 17 17 17 17 16 16 16 16 16 16 16 15 15 15 15 15 15 15 15 15 15 15 15 15
18 18 19 19 19 19 19 19 19 19 20 20 20 19 19 19 19 19 19 19 18 18 18 18 17 17 17 17 17 16 16 16 16 16 16 15 15 15 15 15 15 15 15 15 15 15 15 15 15
18 18 18 18 19 19 19 19 19 19 20 19 19 19 19 19 19 19 19 19 18 18 18 18 17 17 17 17 17 16 16 16 16 16 16 15 15 15 15 15 15 15 15 15 15 15 15 15 15
19 18 18 18 18 19 19 18 18 19 19 19 19 19 19 19 19 19 19 19 19 18 18 18 18 17 17 17 17 16 16 16 16 16 15 15 15 15 15 15 15 15 15 15 15 15 15 15 15
18 18 17 18 18 18 19 18 18 19 19 19 19 19 19 19 19 19 19 19 19 18 18 18 18 17 17 17 17 16 16 16 16 16 15 15 15 15 15 15 15 15 14 14 15 15 15 15 15
17 17 17 18 18 18 18 17 18 18 19 19 19 19 19 19 19 19 19 19 19 19 18 18 18 17 17 17 17 16 16 16 16 16 15 15 15 15 15 15 15 14 14 14 14 15 15 15 15
16 17 17 17 18 18 17 17 17 18 19 18 19 19 19 19 20 20 20 19 19 19 18 18 18 17 17 17 17 16 16 16 16 15 15 15 15 15 15 15 15 14 14 14 14 14 14 15 15
17 17 17 17 18 17 17 17 17 17 18 18 18 19 19 19 20 20 20 19 19 19 18 18 18 18 17 17 17 17 16 16 16 15 15 15 15 15 15 15 14 14 14 14 14 14 14 15 15
17 17 17 17 18 18 17 17 17 17 17 18 18 18 19 19 19 19 19 19 19 19 18 18 18 18 17 17 17 17 16 16 16 15 15 15 15 15 15 14 14 14 14 14 14 14 14 14 14
17 17 17 17 17 17 17 17 17 17 17 18 18 19 19 19 19 19 19 19 19 19 18 18 18 18 17 17 17 17 16 16 16 16 15 15 15 15 14 14 14 14 14 14 14 14 14 14 14
17 18 18 18 17 16 17 16 17 16 16 17 17 18 19 19 19 19 19 19 19 19 19 18 18 18 17 17 17 17 17 16 16 16 15 15 15 15 14 14 14 14 14 14 14 14 14 14 14
17 18 18 17 16 16 16 16 16 16 17 16 17 17 18 19 19 19 19 19 19 19 19 18 18 18 17 17 17 17 17 16 16 16 15 15 15 15 15 14 14 14 14 14 14 14 14 14 13
17 17 17 16 15 16 16 16 16 15 16 17 17 17 18 19 19 19 19 19 19 19 18 18 18 18 18 17 17 17 17 16 16 16 16 15 15 15 15 14 14 14 14 14 14 14 13 13 13
17 16 16 16 16 16 16 16 16 17 17 17 17 17 18 19 19 19 19 19 19 19 18 18 18 18 18 17 17 17 17 16 16 16 16 16 15 15 15 15 14 14 14 14 14 14 13 13 13
17 16 16 16 16 16 16 16 17 17 17 18 18 18 18 18 19 19 19 19 19 19 18 18 18 18 18 17 17 17 17 16 16 16 16 16 15 15 15 15 14 14 14 14 14 14 14 13 13
16 16 16 15 16 16 16 16 17 16 16 16 17 17 18 18 18 19 19 19 19 18 18 18 18 18 17 17 17 17 17 16 16 16 16 15 15 15 15 15 15 14 14 14 14 14 14 13 13
17 15 15 15 16 16 17 17 16 17 16 16 16 17 18 18 18 18 18 19 18 18 18 18 18 17 17 17 17 17 16 16 16 16 16 15 15 15 15 15 15 14 14 14 14 14 14 14 13
16 16 15 15 16 16 16 17 17 17 16 16 16 17 18 18 18 18 18 18 18 18 18 18 17 17 17 17 17 16 16 16 16 16 16 15 15 15 15 15 15 14 14 14 14 14 14 14 14
18 17 16 16 16 15 15 16 18 17 17 17 17 17 18 19 19 18 18 18 18 18 18 17 17 17 17 17 16 16 16 16 16 16 15 15 15 15 15 15 15 14 14 14 14 14 14 14 14
Wind_Speed
3 4 3 3 4 4 1 1 0 1 2 2 3 5 6 4 3 4 1 6 7 6 7 9 11 12 12 12 12 12 12 12 12 11 10 9 9 8 8 7 6 6 6 6 5 5 4 4 4
2 2 4 4 4 2 2 1 0 1 3 3 4 5 6 4 4 5 3 6 7 7 8 9 11 12 12 12 12 12 12 11 11 10 9 9 8 8 7 6 6 5 5 5 5 4 4 4 4
2 3 3 4 2 3 1 0 0 1 2 2 4 5 4 4 5 4 4 8 8 7 8 10 12 12 12 12 12 11 11 10 10 9 9 8 8 7 7 6 6 5 5 4 4 4 4 4 4
3 4 4 3 0 2 1 1 1 2 2 4 4 5 3 2 4 5 8 9 8 6 8 10 12 12 12 12 11 11 10 10 9 9 8 8 7 7 7 6 5 5 5 4 4 4 3 4 4
4 4 3 2 1 2 1 1 0 2 2 3 4 5 3 3 8 11 10 9 9 7 7 10 12 12 11 11 10 10 10 9 8 8 7 7 6 6 6 5 5 4 4 4 4 4 4 4 5
4 4 3 0 2 2 1 2 1 3 3 3 4 4 2 3 8 9 9 8 7 7 6 8 11 11 10 9 9 8 8 7 7 6 5 5 5 5 5 5 4 4 4 4 4 4 5 5 5
4 3 2 1 1 1 1 2 2 3 3 3 4 4 3 3 6 8 8 7 6 6 6 5 7 8 8 8 7 7 6 6 5 5 5 4 4 4 5 5 5 4 4 5 5 5 5 5 5
4 4 1 1 1 1 1 2 2 3 2 2 3 6 5 5 7 8 7 6 5 4 4 4 5 5 5 5 5 5 5 5 5 5 5 6 6 6 6 6 5 5 5 6 6 5 5 5 5
3 4 1 3 3 2 0 2 2 2 3 2 2 3 6 11 11 9 7 4 4 4 2 3 3 4 4 3 4 5 5 5 5 5 5 6 6 6 7 7 6 6 6 6 7 6 6 5 6
4 3 4 3 3 3 2 2 2 3 2 2 4 5 9 11 11 10 8 7 5 4 2 2 3 3 3 3 4 4 5 5 4 5 5 5 5 6 6 8 8 8 8 8 8 7 7 6 5
4 4 3 1 2 2 2 2 2 5 2 5 9 11 11 10 10 10 9 7 6 4 3 3 3 3 2 2 3 4 4 4 4 5 5 4 5 6 7 7 8 9 8 8 8 8 7 6 5
2 2 2 1 2 2 2 3 2 3 4 4 9 13 12 11 11 11 10 7 5 4 4 3 3 3 2 3 3 2 2 3 3 4 4 4 3 4 5 5 6 6 6 6 6 5 6 5 5
2 1 0 1 2 2 3 2 1 1 3 7 9 11 12 11 9 7 7 6 5 5 4 4 4 4 3 3 2 2 2 2 3 4 4 3 3 2 3 3 4 5 5 4 4 4 4 4 4
2 2 2 2 2 1 4 1 2 1 5 9 10 9 9 10 9 7 7 6 6 6 5 4 4 4 4 3 2 2 2 2 3 3 3 3 3 2 2 2 3 4 4 4 3 3 3 3 3
1 3 3 2 1 0 3 2 1 2 7 8 8 8 7 7 7 8 8 7 7 6 5 4 4 4 4 3 3 2 2 2 2 2 3 4 3 3 2 2 3 4 5 4 4 4 3 3 3
3 3 1 2 0 1 3 1 2 2 7 8 7 6 6 6 6 6 6 6 6 6 5 5 5 5 4 3 3 2 3 3 3 3 4 4 4 4 3 2 2 4 5 4 3 3 3 4 3
4 2 1 1 0 2 3 2 2 1 6 7 6 6 5 4 4 5 7 7 7 7 6 5 5 5 4 4 4 4 4 3 3 3 3 4 4 4 4 2 2 4 4 3 3 3 2 2 3
2 2 2 1 1 3 3 1 2 1 4 6 6 5 5 5 6 6 6 6 6 6 6 6 5 5 5 4 3 3 3 3 3 3 3 3 4 4 4 3 4 4 3 4 3 3 3 2 2
3 3 2 0 0 2 3 2 2 1 3 4 5 5 5 5 3 4 5 6 7 6 5 5 5 4 4 3 2 2 1 1 2 2 3 4 4 4 4 3 3 3 3 3 3 2 3 3 3
3 3 2 1 1 1 1 1 2 2 4 6 6 7 6 5 4 4 5 6 7 6 5 5 5 5 4 3 2 2 2 1 1 1 3 4 4 4 3 3 2 3 3 4 4 3 2 3 4
3 4 5 4 2 3 2 3 2 1 1 2 3 5 5 8 8 6 6 6 6 6 6 6 6 5 4 4 3 3 3 3 2 2 2 3 4 3 3 3 2 2 2 3 3 2 2 2 3
3 4 6 5 3 1 1 1 4 2 1 3 4 4 6 6 6 7 7 6 6 6 5 5 5 5 4 4 4 4 3 1 1 1 1 2 3 3 3 3 3 2 2 2 2 2 1 2 2
3 3 4 3 3 1 1 2 5 1 3 5 5 5 6 6 7 8 8 7 6 5 5 5 5 4 4 4 5 4 3 2 0 1 1 2 3 3 3 2 2 2 2 2 2 3 2 1 1
5 6 5 4 3 0 3 3 5 5 7 6 6 6 6 6 7 7 6 6 5 5 4 4 5 4 3 4 4 4 4 3 2 1 1 1 2 2 2 2 2 2 1 2 1 2 2 1 1
4 5 2 2 1 3 2 3 7 7 7 8 9 8 7 7 7 7 7 7 6 6 5 5 5 4 3 4 3 3 3 3 3 2 1 0 1 2 2 1 1 1 1 2 1 2 2 2 1
6 7 6 5 4 2 1 5 6 4 4 5 6 7 6 7 7 8 8 8 7 6 6 5 5 4 3 3 3 2 2 2 2 2 1 1 1 2 2 1 1 1 1 2 2 2 2 2 2
7 4 5 5 2 1 3 5 5 0 2 4 7 8 8 8 7 7 7 7 7 6 6 6 6 4 3 3 3 2 2 2 1 1 1 0 1 1 1 0 1 1 1 1 1 2 2 2 2
5 7 5 4 4 2 3 4 4 4 5 6 8 9 8 8 7 7 7 7 6 6 5 5 5 5 3 3 3 2 2 2 2 2 1 1 1 1 1 1 1 2 2 2 1 1 2 2 2
5 4 4 4 4 4 2 6 5 8 8 9 9 9 10 9 8 7 6 6 6 5 5 5 5 4 3 3 3 3 2 2 2 2 1 1 1 1 1 1 2 2 2 2 2 2 2 2 3
6 7 7 5 4 4 3 6 4 5 7 8 8 7 8 9 8 7 7 7 6 6 5 5 5 5 4 4 4 4 3 3 3 2 2 2 2 2 2 2 2 2 2 2 2 2 2 2 2
Wind_Direction
53 78 77 56 54 53 14 294 204 26 43 43 75 87 96 87 101 128 107 124 127 128 132 134 127 122 118 115 111 109 107 105 102 101 101 100 98 95 93 92 93 92 88 86 81 76 72 67 56
86 83 58 59 80 64 294 273 176 203 147 137 77 77 74 73 77 103 117 134 128 126 125 130 126 120 116 113 110 107 104 103 102 101 100 97 93 90 88 88 86 83 82 79 76 67 56 50 42
88 57 77 70 101 172 224 291 198 40 116 81 72 59 73 95 117 130 148 137 123 119 122 128 124 120 116 112 108 106 105 104 101 99 96 92 89 86 82 80 75 70 66 66 64 55 41 32 27
80 47 59 71 178 236 244 315 141 115 78 57 90 70 59 65 141 139 135 129 122 117 124 127 124 119 116 112 109 107 105 102 99 96 92 87 82 78 74 68 63 58 50 46 45 37 25 15 11
62 74 62 41 289 304 328 335 163 107 83 68 93 87 47 20 112 126 130 130 128 123 123 128 127 122 119 115 112 108 103 99 96 93 88 81 74 68 63 55 48 44 36 30 27 19 11 6 2
58 66 84 184 299 320 347 350 78 88 90 87 92 95 70 109 123 133 131 131 130 127 120 126 129 126 124 120 116 110 104 100 93 87 80 71 58 51 43 34 28 24 20 14 11 5 0 356 354
103 97 136 206 290 332 45 26 89 107 109 118 113 99 100 142 140 131 124 120 116 115 112 107 115 123 123 120 116 109 103 95 86 75 65 55 42 30 20 11 4 1 3 360 355 352 352 353 353
119 105 100 226 199 266 348 49 77 96 100 107 111 135 162 176 137 117 108 104 107 105 105 106 107 107 103 103 109 104 96 87 71 56 45 34 26 17 9 1 354 354 360 357 353 352 354 359 358
95 82 187 214 197 210 87 74 55 74 107 93 91 142 157 140 127 117 108 100 115 125 108 111 109 103 99 96 93 80 70 61 50 40 34 30 24 14 8 6 8 6 3 1 2 3 3 8 5
102 149 222 219 182 159 143 124 132 95 98 89 82 89 124 134 138 141 147 153 158 163 160 137 125 110 99 88 75 61 59 52 43 38 35 33 30 21 19 18 20 19 17 14 15 18 21 24 15
149 187 229 253 164 148 139 138 123 130 165 183 155 145 143 143 150 157 166 169 176 174 174 166 151 136 120 91 81 63 55 46 37 38 40 41 37 32 29 25 19 18 18 17 16 26 25 23 18
158 228 195 200 155 144 148 130 119 169 209 177 153 150 151 156 167 172 174 175 168 166 183 173 156 144 134 113 91 77 59 45 38 39 44 56 50 38 32 29 17 16 13 12 16 20 18 20 21
179 246 148 130 111 136 115 113 130 211 149 132 135 146 157 166 171 175 173 171 165 171 180 173 162 156 142 121 104 86 63 55 52 48 47 65 73 49 34 23 20 17 17 19 14 17 18 16 15
195 138 69 58 100 91 109 69 80 156 129 134 143 159 170 173 172 169 169 170 172 177 177 160 157 152 138 129 117 100 84 70 66 56 54 66 78 74 49 24 16 13 10 14 23 21 19 13 15
121 92 50 20 76 109 109 43 261 186 136 143 158 172 176 180 178 183 183 177 175 175 163 160 158 142 137 133 125 113 93 84 73 58 57 67 74 76 67 40 19 4 6 17 27 26 26 24 23
84 88 72 327 23 78 105 223 272 175 152 160 170 177 181 193 194 189 176 171 168 161 157 164 155 137 134 127 116 99 83 79 67 61 58 59 66 72 67 48 16 5 17 23 27 27 27 22 18
51 108 146 329 1 125 124 218 292 151 162 171 181 185 189 201 203 187 172 169 167 162 156 150 137 133 130 117 99 88 77 67 60 58 51 49 53 58 65 49 18 21 30 23 24 35 34 23 12
160 144 130 144 11 115 132 237 285 160 173 185 189 194 194 202 211 185 169 163 153 148 144 139 131 127 119 104 88 71 59 44 46 43 38 44 46 51 60 51 32 34 38 26 27 36 31 24 2
144 133 123 198 252 109 149 200 264 206 169 189 192 196 202 211 208 159 155 147 137 138 142 144 140 141 130 113 107 100 78 28 23 18 27 38 41 47 56 48 34 32 41 28 25 36 33 18 3
140 129 123 57 43 128 141 262 262 206 191 201 198 196 198 184 164 156 150 149 150 153 154 153 155 154 151 139 127 127 125 94 38 1 23 31 31 33 52 54 37 27 34 29 27 37 36 17 23
181 177 178 168 69 48 77 341 297 278 206 185 194 191 189 183 178 172 166 163 156 163 171 170 165 159 151 134 106 86 64 43 28 16 8 6 23 34 49 53 49 34 42 28 20 36 63 33 14
208 198 165 154 122 3 93 235 285 259 260 221 211 191 190 186 175 171 170 170 172 177 170 160 157 155 149 138 138 137 134 150 230 274 328 357 23 26 34 47 50 46 41 29 8 41 55 75 24
177 135 135 131 130 84 30 159 276 250 225 228 217 200 191 185 175 172 174 174 172 163 159 160 152 149 143 141 147 140 138 155 144 45 28 11 2 11 27 38 43 39 30 27 26 30 39 64 77
126 85 74 62 80 141 224 181 261 223 212 207 202 196 187 177 166 161 156 148 149 147 147 149 147 146 139 139 142 148 153 150 131 97 31 356 341 341 1 23 30 23 15 12 18 30 37 37 53
117 104 83 34 14 252 222 200 249 237 210 195 189 191 183 169 159 155 154 155 156 157 156 154 152 153 148 143 144 155 164 164 171 179 197 277 328 322 321 345 352 351 348 1 22 36 25 21 32
171 149 162 178 199 256 224 233 254 255 212 182 174 168 162 160 161 164 168 164 163 164 158 156 158 157 154 151 154 152 161 160 175 182 187 212 243 264 281 298 319 342 356 15 34 38 14 21 15
142 169 163 131 134 161 254 273 299 61 152 160 156 154 165 169 168 168 163 160 162 163 164 163 159 150 151 149 143 143 147 142 141 137 129 198 270 274 308 345 356 358 12 20 40 35 11 18 15
142 142 114 129 155 219 273 263 241 222 196 177 169 172 174 168 166 163 160 159 161 161 153 146 150 154 151 142 144 134 132 132 132 114 87 41 351 9 37 35 30 18 17 22 43 12 4 22 0
131 127 128 128 151 159 227 267 234 211 195 182 183 179 172 168 166 163 159 151 142 134 131 134 135 128 123 126 117 105 91 88 95 91 72 61 41 50 61 56 53 38 26 26 40 14 14 22 2
163 168 155 156 192 174 175 266 287 214 187 175 173 169 163 161 156 152 146 137 134 134 134 135 133 128 127 122 109 102 92 83 76 64 48 60 60 49 54 61 61 45 36 30 33 16 20 28 6
Height
1499 1499 1499 1501 1503 1511 1512 1507 1503 1502 1502 1502 1502 1502 1504 1508 1511 1517 1515 1514 1516 1517 1519 1521 1522 1523 1525 1525 1527 1527 1528 1529 1530 1530 1531 1531 1532 1532 1533 1533 1533 1533 1533 1533 1534 1534 1534 1534 1534
1499 1499 1501 1502 1509 1518 1514 1505 1504 1502 1502 1502 1503 1504 1506 1508 1510 1512 1514 1515 1517 1519 1520 1522 1523 1525 1526 1527 1528 1528 1529 1530 1530 1531 1532 1532 1532 1533 1533 1533 1533 1533 1533 1533 1534 1534 1534 1534 1534
1499 1500 1502 1504 1510 1515 1510 1504 1503 1502 1502 1503 1504 1506 1508 1510 1511 1513 1515 1516 1518 1520 1522 1523 1525 1526 1527 1528 1529 1529 1530 1531 1531 1532 1533 1533 1533 1533 1533 1533 1533 1533 1533 1533 1533 1533 1534 1534 1534
1500 1502 1503 1508 1510 1507 1505 1503 1503 1502 1503 1503 1505 1508 1510 1513 1513 1515 1516 1518 1520 1522 1523 1525 1526 1527 1528 1529 1530 1531 1531 1532 1532 1533 1533 1534 1534 1534 1533 1533 1533 1533 1533 1533 1533 1533 1533 1533 1534
1500 1501 1506 1511 1509 1505 1503 1503 1503 1503 1504 1505 1506 1509 1512 1514 1515 1516 1518 1520 1521 1523 1525 1527 1528 1529 1530 1531 1532 1532 1533 1533 1534 1534 1535 1535 1535 1534 1534 1534 1534 1533 1533 1533 1533 1533 1533 1533 1533
1501 1502 1512 1515 1509 1505 1503 1503 1503 1504 1505 1506 1507 1510 1514 1515 1516 1518 1520 1522 1524 1525 1527 1528 1530 1531 1531 1532 1533 1534 1534 1535 1535 1536 1536 1536 1535 1535 1535 1534 1534 1534 1534 1533 1533 1533 1533 1533 1533
1503 1506 1511 1511 1510 1506 1504 1503 1504 1505 1506 1508 1509 1511 1514 1516 1518 1519 1522 1524 1525 1527 1529 1530 1531 1532 1533 1534 1535 1535 1536 1536 1537 1537 1537 1537 1536 1536 1535 1535 1535 1534 1534 1534 1533 1533 1533 1533 1533
1502 1506 1510 1511 1510 1507 1504 1503 1505 1506 1508 1509 1510 1511 1514 1517 1519 1521 1523 1525 1527 1529 1530 1532 1533 1534 1535 1536 1536 1537 1537 1538 1538 1538 1538 1537 1537 1537 1536 1536 1535 1534 1534 1534 1533 1533 1533 1532 1532
1502 1510 1513 1510 1508 1506 1504 1504 1506 1507 1508 1509 1510 1512 1514 1517 1520 1522 1525 1527 1528 1530 1532 1533 1534 1536 1537 1537 1538 1538 1539 1539 1539 1539 1539 1538 1538 1537 1537 1536 1535 1535 1534 1534 1533 1533 1533 1532 1532
1503 1511 1508 1504 1504 1504 1504 1505 1506 1508 1509 1510 1511 1513 1515 1517 1520 1523 1525 1527 1529 1531 1533 1535 1536 1537 1538 1539 1539 1540 1540 1540 1540 1540 1539 1539 1538 1538 1537 1536 1536 1535 1534 1534 1533 1533 1533 1532 1532
1502 1505 1503 1502 1503 1503 1504 1506 1506 1508 1510 1510 1510 1513 1516 1518 1521 1523 1526 1528 1530 1533 1534 1536 1537 1538 1539 1540 1541 1541 1541 1541 1541 1541 1540 1539 1539 1538 1537 1537 1536 1535 1534 1534 1533 1533 1532 1532 1532
1502 1502 1502 1502 1503 1503 1504 1505 1507 1508 1509 1510 1511 1513 1516 1519 1521 1524 1527 1529 1531 1533 1535 1537 1538 1539 1540 1541 1542 1542 1542 1542 1542 1541 1541 1540 1539 1538 1537 1537 1536 1535 1535 1534 1533 1533 1532 1532 1531
1501 1502 1502 1502 1503 1504 1505 1506 1507 1508 1509 1511 1513 1515 1517 1520 1523 1526 1528 1531 1532 1534 1536 1537 1539 1540 1541 1542 1543 1543 1543 1543 1542 1542 1541 1540 1539 1538 1538 1537 1536 1535 1534 1534 1533 1533 1532 1532 1531
1501 1501 1503 1503 1504 1505 1506 1507 1508 1509 1510 1512 1514 1516 1518 1521 1524 1526 1529 1531 1533 1535 1537 1538 1540 1541 1542 1543 1543 1544 1544 1544 1543 1543 1542 1541 1540 1539 1538 1537 1536 1535 1534 1534 1533 1532 1532 1531 1531
1500 1503 1504 1505 1505 1506 1507 1510 1510 1509 1511 1512 1515 1517 1520 1522 1525 1527 1529 1531 1534 1536 1537 1539 1540 1541 1542 1543 1544 1544 1544 1544 1544 1543 1543 1542 1541 1540 1539 1538 1536 1535 1534 1534 1533 1532 1532 1532 1531
1502 1507 1512 1508 1506 1506 1511 1517 1510 1510 1511 1513 1515 1518 1520 1523 1525 1527 1529 1532 1534 1536 1538 1539 1541 1542 1543 1544 1544 1545 1545 1545 1544 1544 1543 1542 1541 1540 1539 1538 1537 1535 1534 1534 1533 1532 1532 1531 1531
1509 1515 1514 1511 1507 1508 1512 1515 1511 1510 1511 1513 1515 1518 1520 1522 1525 1527 1529 1532 1534 1536 1538 1540 1541 1542 1543 1544 1545 1545 1545 1545 1545 1544 1544 1543 1542 1541 1540 1538 1537 1536 1535 1534 1533 1532 1532 1531 1531
1515 1515 1514 1514 1510 1510 1513 1514 1511 1511 1512 1513 1515 1517 1519 1521 1524 1526 1529 1532 1534 1537 1539 1540 1541 1543 1544 1545 1545 1546 1546 1546 1545 1545 1544 1544 1543 1542 1540 1539 1538 1536 1535 1534 1533 1533 1532 1531 1531
1508 1511 1514 1513 1509 1512 1515 1515 1512 1511 1512 1514 1515 1517 1518 1520 1523 1526 1528 1531 1534 1536 1538 1540 1541 1543 1544 1545 1546 1546 1546 1546 1546 1546 1545 1544 1543 1542 1541 1540 1539 1537 1536 1535 1534 1533 1533 1532 1532
1508 1513 1515 1514 1510 1512 1515 1515 1512 1511 1512 1512 1514 1515 1517 1519 1522 1525 1527 1530 1533 1535 1538 1540 1542 1543 1544 1545 1546 1546 1546 1546 1546 1546 1545 1545 1544 1543 1542 1541 1539 1538 1537 1536 1535 1534 1533 1533 1532
1508 1512 1513 1515 1513 1512 1516 1518 1514 1511 1511 1512 1513 1514 1516 1518 1520 1523 1526 1529 1532 1535 1537 1540 1541 1543 1544 1545 1546 1547 1547 1547 1547 1546 1546 1545 1545 1544 1543 1542 1540 1539 1538 1537 1536 1535 1534 1533 1533
1510 1506 1508 1512 1518 1524 1521 1530 1518 1513 1512 1511 1512 1513 1515 1517 1519 1522 1525 1529 1532 1535 1537 1539 1541 1543 1544 1545 1546 1547 1547 1547 1547 1547 1546 1546 1545 1544 1544 1542 1541 1540 1538 1537 1536 1536 1535 1534 1534
1506 1504 1507 1512 1518 1525 1523 1529 1523 1514 1514 1511 1510 1511 1513 1515 1518 1521 1524 1528 1531 1534 1537 1539 1541 1543 1544 1545 1546 1547 1547 1547 1547 1547 1547 1546 1546 1545 1544 1543 1542 1541 1539 1538 1537 1536 1536 1535 1534
1503 1508 1511 1516 1522 1531 1525 1528 1525 1515 1510 1508 1508 1509 1511 1514 1517 1520 1524 1527 1530 1533 1536 1538 1541 1542 1544 1545 1546 1547 1547 1547 1547 1547 1547 1547 1546 1545 1545 1544 1543 1541 1540 1539 1538 1537 1536 1535 1535
1505 1516 1527 1531 1535 1533 1522 1524 1519 1504 1502 1502 1504 1506 1509 1513 1516 1519 1523 1526 1529 1532 1535 1538 1540 1542 1543 1544 1545 1546 1547 1547 1547 1547 1547 1547 1546 1546 1545 1544 1543 1542 1541 1540 1539 1538 1537 1536 1535
1506 1512 1527 1536 1537 1532 1523 1524 1511 1499 1498 1499 1502 1505 1508 1511 1515 1518 1521 1525 1528 1531 1534 1537 1539 1541 1542 1543 1545 1545 1546 1547 1547 1547 1547 1547 1546 1546 1545 1545 1544 1543 1542 1541 1540 1539 1538 1537 1536
1506 1511 1511 1523 1527 1531 1526 1516 1505 1498 1498 1498 1500 1504 1507 1510 1514 1517 1521 1524 1527 1530 1533 1536 1538 1540 1541 1543 1544 1545 1545 1546 1546 1547 1547 1547 1546 1546 1545 1545 1544 1543 1542 1541 1540 1539 1538 1537 1536
1498 1504 1516 1522 1531 1533 1523 1518 1512 1501 1499 1498 1499 1501 1505 1509 1512 1516 1519 1523 1526 1529 1532 1535 1537 1539 1540 1542 1543 1544 1544 1545 1545 1546 1546 1546 1546 1546 1545 1545 1544 1543 1542 1541 1540 1539 1539 1538 1537
1502 1506 1510 1518 1520 1530 1531 1520 1496 1494 1493 1495 1497 1499 1502 1507 1511 1515 1518 1522 1525 1528 1531 1533 1536 1538 1539 1540 1541 1542 1543 1544 1544 1545 1545 1545 1545 1545 1544 1544 1543 1543 1542 1541 1540 1539 1538 1538 1537
1492 1498 1505 1515 1520 1521 1524 1517 1489 1489 1490 1492 1495 1498 1502 1505 1509 1514 1517 1521 1524 1527 1529 1532 1534 1536 1538 1539 1540 1541 1542 1543 1543 1544 1544 1544 1544 1544 1543 1543 1542 1542 1541 1540 1540 1539 1538 1537 1536